Regional Weather Roundup
Issued by NWS

Home | Current Version | Previous Version | Text Only | Print | Product List | Glossary On
Versions: 1 2 3 4 5 6 7 8 9 10 11 12 13 14 15 16 17 18 19 20 21 22 23 24 25 26 27 28 29 30 31 32 33 34 35 36 37 38 39 40 41 42 43 44 45 46 47 48 49 50
000
ASUS43 KTOP 020908
RWRKS

WEATHER ROUNDUP FOR KANSAS
NATIONAL WEATHER SERVICE GOODLAND KS
400 AM CDT MON MAY 02 2016

NOTE:  "FAIR" INDICATES FEW OR NO CLOUDS BELOW 12,000 FEET WITH NO
SIGNIFICANT WEATHER AND/OR OBSTRUCTIONS TO VISIBILITY.

KSZ001>006-013>018-027>032-041>047-021000-
NORTHWEST KANSAS

CITY           SKY/WX    TMP DP  RH WIND       PRES   REMARKS
GOODLAND       CLOUDY    30  27  88 W8        30.23F
HAYS           CLOUDY    43  34  70 NW5       30.20F
HILL CITY      CLOUDY    42  39  89 W5        30.21F
RUSSELL        CLOUDY    45  41  86 NW9       30.18F
$$

KSZ061>065-074>080-084>089-021000-
SOUTHWEST KANSAS

CITY           SKY/WX    TMP DP  RH WIND       PRES   REMARKS
DODGE CITY     CLEAR     36  34  92 NW7       30.21F
ELKHART          N/A     40  33  76 NW7         N/A
GARDEN CITY    CLOUDY    41  38  89 NW7       30.21F
GREAT BEND     CLOUDY    45  37  76 NW8       30.20S
LIBERAL        CLEAR     37  34  87 W7        30.22F
PRATT          CLOUDY    42  40  93 NW9       30.19S
$$

KSZ066>073-081>083-090>101-021000-
SOUTHEAST KANSAS

CITY           SKY/WX    TMP DP  RH WIND       PRES   REMARKS
CHANUTE        CLOUDY    50  43  77 N6        30.11F
COFFEYVILLE    CLOUDY    52  45  77 N7        30.11F
HUTCHINSON     CLOUDY    47  43  86 NW7       30.17S
MEDICINE LODGE   N/A     46  42  86 NW7       30.18S
NEWTON         CLOUDY    45  37  76 N12       30.16F
PARSONS        CLOUDY    51  46  83 N7        30.11F
WICHITA INTL   CLOUDY    48  42  80 N10       30.15F
WICHITA JABRA  CLOUDY    46  42  86 NW10      30.14F
WINFIELD       CLOUDY    48  43  82 N8        30.15S
$$

KSZ007>012-019>026-033>040-048>060-102>105-021000-
NORTHEAST KANSAS

CITY           SKY/WX    TMP DP  RH WIND       PRES   REMARKS
CONCORDIA      CLOUDY    46  43  89 NW6       30.17F
EMPORIA        CLOUDY    47  43  86 NW8       30.13F
LAWRENCE       CLOUDY    48  44  86 NW6       30.13F
MANHATTAN      CLOUDY    49  42  77 CALM      30.16S
MARYSVILLE     CLOUDY    46  45  93 NW5       30.15S
OLATHE IND     LGT RAIN  47  45  93 NW8       30.12F
OLATHE EXE     CLOUDY    47  43  86 N8        30.10F
SALINA         CLOUDY    48  44  86 NW8       30.17F
TOPEKA BILLARD CLOUDY    48  43  82 NW7       30.13F
TOPEKA FORBES  CLOUDY    49  43  80 N8        30.12F
$$




USA.gov is the U.S. government's official web portal to all federal, state and local government web resources and services.